Regional Weather Roundup
Issued by NWS Cleveland, OH

Home | Current Version | Previous Version | Text Only | Print | Product List | Glossary On
Versions: 1 2 3 4 5 6 7 8 9 10 11 12 13 14 15 16 17 18 19 20 21 22 23 24 25 26 27 28 29 30 31 32 33 34 35 36 37 38 39 40 41 42 43 44 45 46 47 48 49 50
000
ASUS41 KCLE 232010
RWRCLE
OHIO REGIONAL WEATHER ROUNDUP
NATIONAL WEATHER SERVICE WILMINGTON, OH
400 PM EDT WED JUL 23 2014

NOTE: "FAIR" INDICATES FEW OR NO CLOUDS BELOW 12,000 FEET WITH NO
SIGNIFICANT WEATHER AND/OR OBSTRUCTIONS TO VISIBILITY.

OHZ001>008-015>018-024>027-034-035-043-044-232100-
   NORTHWEST OHIO

CITY           SKY/WX    TMP DP  RH WIND       PRES   REMARKS
DEFIANCE       CLOUDY    75  61  61 N9        30.03F
FINDLAY        CLOUDY    70  63  78 N12       30.03S
TOLEDO EXPRESS CLOUDY    75  60  59 N13       30.03F
TOLEDO METCALF CLOUDY    74  61  63 N6        30.04S
LIMA           CLOUDY    70  67  90 N10G20    30.03R FOG
$$

OHZ009>014-019>023-028>033-038-089-232100-
   NORTHEAST OHIO

CITY           SKY/WX    TMP DP  RH WIND       PRES   REMARKS
CLE-HOPKINS    CLOUDY    66  61  84 N9        30.05F
CLE-LAKEFRONT  CLOUDY    66  61  82 NW12      30.01F
CUY CO. ARPT   CLOUDY    66  64  94 NW7       30.03F
LORAIN-ELYRIA  CLOUDY    69  62  78 N10       30.04F
ASHTABULA      CLOUDY    67  63  87 NW8       30.01F
AKRON-CANTON   LGT RAIN  69  63  81 N12       30.01F
WOOSTER        CLOUDY    72  64  76 N14       30.02F
MANSFIELD      CLOUDY    67  66  97 N9        30.03F FOG
YOUNGSTOWN     LGT RAIN  67  64  90 NW13      30.00F
$$

OHZ042-051>053-060>062-070>072-077>081-232100-
  SOUTHWEST OHIO

CITY           SKY/WX    TMP DP  RH WIND       PRES   REMARKS
CINC-COVINGTON PTSUNNY   82  71  69 W7        30.00S
CINC-LUNKEN    CLOUDY    79  69  71 NE7       30.00F
HAMILTON       CLOUDY    80  70  71 N5        30.01F
DAYTON         CLOUDY    79  69  71 NW12      30.02F
WRIGHT-PAT AFB CLOUDY    77  68  73 NW6       30.01S
DAYTON GENERAL CLOUDY    78  68  71 NW13      30.01F
WILMINGTON     CLOUDY    77  64  64 NW7       30.01R
$$

OHZ036-037-039>041-045>050-054>059-063>069-073>076-082>088-232100-
  CENTRAL AND SOUTHEAST OHIO

CITY           SKY/WX    TMP DP  RH WIND       PRES   REMARKS
COLUMBUS       CLOUDY    82  66  58 NW10      29.98F
OSU AIRPORT    CLOUDY    78  67  68 NW13      29.99F
BOLTON FIELD   PTSUNNY   79  70  73 MISG      30.00F
RICKENBACK AFB PTSUNNY   82  64  52 NW12      29.98S
NEWARK         PTSUNNY   80  67  64 NW13      29.98F
MARION         CLOUDY    70  68  93 NE10      30.02F FOG
LANCASTER      MOSUNNY   82  68  62 N7        29.98F
ZANESVILLE     PTSUNNY   80  66  62 NW10G20   29.98F
NEW PHILLY     CLOUDY    78  69  73 NW10      29.98F
$$


USA.gov is the U.S. government's official web portal to all federal, state and local government web resources and services.